Location: Newark
(52.7309°N, 9.0270°W)
Time: 22:11:11
(UTC+00:00)

ISS - Visible Passes

Search period start: 17 January 2020 00:00
Search period end: 27 January 2020 00:00
Orbit: 415 x 421 km, 51.6° (Epoch: 18 January)

Date Brightness Start Highest point End Pass type
(mag) Time Alt. Az. Time Alt. Az. Time Alt. Az.
21 Jan -1.0 19:46:35 10° SSW 19:47:02 13° SSW 19:47:02 13° SSW visible
22 Jan -1.8 18:59:11 10° S 19:01:13 18° SSE 19:01:13 18° SSE visible
23 Jan -1.4 18:12:13 10° SSE 18:13:45 13° SE 18:15:19 10° ESE visible
23 Jan -1.7 19:46:42 10° SW 19:48:17 24° SW 19:48:17 24° SW visible
24 Jan -2.8 18:58:56 10° SW 19:01:58 32° SSE 19:02:20 31° SE visible
24 Jan -0.3 20:35:08 10° WSW 20:35:16 11° WSW 20:35:16 11° WSW visible
25 Jan -2.2 18:11:18 10° SSW 18:14:05 24° SSE 18:16:20 13° E visible
25 Jan -2.2 19:47:09 10° WSW 19:49:16 35° SW 19:49:16 35° SW visible
26 Jan -3.4 18:59:12 10° WSW 19:02:29 52° SSE 19:03:14 42° ESE visible
26 Jan -0.4 20:35:46 10° W 20:36:09 13° W 20:36:09 13° W visible
